Madras, India

3:50 AM IST on February 24, 2017 (GMT +0530)
Chennai International

Weather History for VOMM - May, 2013

Change the Weather History Date:

Tuesday, May 7, 2013

  Actual Average Record
Temperature  
Mean Temperature 89 °F -  
Max Temperature 97 °F 96 °F 104 °F (2011)
Min Temperature 81 °F 80 °F 78 °F (2001)
Cooling Degree Days 24    
Growing Degree Days 39 (Base 50)    
Moisture  
Dew Point 77 °F    
Average Humidity 69    
Maximum Humidity 89    
Minimum Humidity 43    
Precipitation  
Precipitation 0.00 in 0.06 in - ()
Sea Level Pressure  
Sea Level Pressure 29.70 in    
Wind  
Wind Speed 6 mph ()    
Max Wind Speed 16 mph    
Max Gust Speed 23 mph    
Visibility 4.2 miles    
Events      
Averages and records for this station are not official NWS values.
T = Trace of Precipitation, MM = Missing Value Source: Averaged Metar Reports

Daily Weather History Graph

Daily Weather History Graph

Search for Another Location

Airport or City:

Trip Planner

Search our weather history database for the weather conditions in past years. The results will help you decide how hot, cold, wet, or windy it might be!

Date:

Astronomy

May. 07, 2013 Rise Set
Actual Time 5:46 AM IST 6:25 PM IST
Civil Twilight 5:23 AM IST 6:47 PM IST
Nautical Twilight 4:57 AM IST 7:14 PM IST
Astronomical Twilight 4:31 AM IST 7:40 PM IST
Moon 3:39 AM IST (5/7) 4:17 PM IST (5/7)
Length of Visible Light 13h 23m
Length of Day
12h 39m
Waning Crescent, 7% of the Moon is Illuminated
May 7
Waning Crescent
May 10
New
May 18
First Quarter
May 25
Full
Jun 1
Last Quarter

Hourly Weather History & Observations

Time (IST) Temp. Heat Index Dew Point Humidity Pressure Visibility Wind Dir Wind Speed Gust Speed Precip Events Conditions
12:10 AM 84.2 °F 94.1 °F 77.0 °F 79% 29.71 in 3.7 mi SSE 8.1 mph - N/A   Partly Cloudy
12:40 AM 84.2 °F 94.1 °F 77.0 °F 79% 29.71 in 3.7 mi South 6.9 mph - N/A   Partly Cloudy
1:10 AM 84.2 °F 94.1 °F 77.0 °F 79% 29.71 in 3.7 mi South 4.6 mph - N/A   Scattered Clouds
1:40 AM 84.2 °F 94.1 °F 77.0 °F 79% 29.71 in 3.7 mi South 4.6 mph - N/A   Scattered Clouds
2:10 AM 84.2 °F 94.1 °F 77.0 °F 79% 29.68 in 3.7 mi SSE 5.8 mph - N/A   Scattered Clouds
2:30 AM 84 °F - 79 °F 81% 29.71 in 2 mi Calm Calm - -   Partly Cloudy
2:40 AM 84.2 °F 94.1 °F 77.0 °F 79% 29.68 in 3.7 mi Calm Calm - N/A   Partly Cloudy
3:10 AM 84.2 °F 94.1 °F 77.0 °F 79% 29.68 in 3.7 mi SSW 3.5 mph - N/A   Partly Cloudy
3:40 AM 82.4 °F 90.9 °F 77.0 °F 84% 29.68 in 3.7 mi Variable 3.5 mph - N/A   Partly Cloudy
4:10 AM 82.4 °F 90.9 °F 77.0 °F 84% 29.68 in 3.7 mi Variable 3.5 mph - N/A   Partly Cloudy
4:40 AM 80.6 °F 87.1 °F 77.0 °F 89% 29.71 in 3.7 mi Variable 3.5 mph - N/A   Partly Cloudy
5:10 AM 80.6 °F 87.1 °F 77.0 °F 89% 29.71 in 3.7 mi SW 4.6 mph - N/A   Partly Cloudy
5:30 AM 83 °F - 78 °F 82% 29.74 in 2 mi Calm Calm - -   Scattered Clouds
5:40 AM 80.6 °F 87.1 °F 77.0 °F 89% 29.71 in 3.7 mi WSW 4.6 mph - N/A   Partly Cloudy
6:10 AM 80.6 °F 87.1 °F 77.0 °F 89% 29.71 in 3.7 mi WSW 5.8 mph - N/A   Partly Cloudy
6:40 AM 82.4 °F 90.9 °F 77.0 °F 84% 29.74 in 3.7 mi WSW 5.8 mph - N/A   Partly Cloudy
7:10 AM 82.4 °F 90.9 °F 77.0 °F 84% 29.74 in 3.7 mi WSW 6.9 mph - N/A   Partly Cloudy
7:40 AM 84.2 °F 94.1 °F 77.0 °F 79% 29.74 in 3.7 mi WSW 8.1 mph - N/A   Scattered Clouds
8:10 AM 86.0 °F 99.3 °F 78.8 °F 79% 29.77 in 3.7 mi WSW 8.1 mph - N/A   Scattered Clouds
8:30 AM 88 °F - 79 °F 68% 29.78 in 6 mi SW 2.3 mph - -   Partly Cloudy
8:40 AM 87.8 °F 99.7 °F 77.0 °F 70% 29.77 in 3.7 mi SW 8.1 mph - N/A   Scattered Clouds
9:10 AM 89.6 °F 99.8 °F 75.2 °F 62% 29.77 in 4.3 mi SW 6.9 mph - N/A   Scattered Clouds
9:40 AM 91.4 °F 102.5 °F 75.2 °F 59% 29.77 in 5.0 mi SW 4.6 mph - N/A   Scattered Clouds
10:10 AM 91.4 °F 102.5 °F 75.2 °F 59% 29.77 in 5.0 mi SSW 8.1 mph - N/A   Scattered Clouds
10:40 AM 93.2 °F 102.4 °F 73.4 °F 52% 29.74 in 5.6 mi South 6.9 mph - N/A   Scattered Clouds
11:10 AM 93.2 °F 102.4 °F 73.4 °F 52% 29.74 in 6.2 mi South 4.6 mph - N/A   Scattered Clouds
11:30 AM 96 °F - 76 °F 43% 29.77 in 6 mi Calm Calm - -   Mostly Cloudy
11:40 AM 93.2 °F 102.4 °F 73.4 °F 52% 29.74 in 6.2 mi SSW 6.9 mph - N/A   Scattered Clouds
12:10 PM 95.0 °F 107.4 °F 75.2 °F 53% 29.71 in 5.6 mi SSE 8.1 mph - N/A   Scattered Clouds
12:40 PM 95.0 °F 109.7 °F 77.0 °F 56% 29.71 in 5.6 mi ESE 9.2 mph - N/A   Scattered Clouds
1:10 PM 95.0 °F 109.7 °F 77.0 °F 56% 29.68 in 5.6 mi ESE 13.8 mph - N/A   Scattered Clouds
1:40 PM 95.0 °F 109.7 °F 77.0 °F 56% 29.68 in 5.0 mi SE 13.8 mph - N/A   Partly Cloudy
2:10 PM 93.2 °F 107.2 °F 77.0 °F 59% 29.65 in 5.0 mi ESE 11.5 mph - N/A   Partly Cloudy
2:30 PM 95 °F - 78 °F 49% 29.70 in 6 mi SE 9.2 mph - -   Scattered Clouds
2:40 PM 93.2 °F 105.0 °F 75.2 °F 56% 29.65 in 5.0 mi SE 16.1 mph - N/A   Partly Cloudy
3:10 PM 93.2 °F 105.0 °F 75.2 °F 56% 29.62 in 5.0 mi ESE 11.5 mph 23.0 mph N/A   Partly Cloudy
3:40 PM 95.0 °F 109.7 °F 77.0 °F 56% 29.62 in 5.0 mi East 9.2 mph 20.7 mph N/A   Partly Cloudy
4:10 PM 95.0 °F 107.4 °F 75.2 °F 53% 29.62 in 5.0 mi ESE 9.2 mph 20.7 mph N/A   Partly Cloudy
4:40 PM 93.2 °F 105.0 °F 75.2 °F 56% 29.62 in 5.0 mi SE 16.1 mph - N/A   Partly Cloudy
5:10 PM 91.4 °F 102.5 °F 75.2 °F 59% 29.62 in 5.0 mi SE 9.2 mph 20.7 mph N/A   Partly Cloudy
5:30 PM 91 °F - 77 °F 56% 29.66 in 6 mi SE 6.9 mph - -   Scattered Clouds
5:40 PM 91.4 °F 102.5 °F 75.2 °F 59% 29.62 in 4.3 mi SSE 13.8 mph - N/A   Partly Cloudy
6:10 PM 89.6 °F 99.8 °F 75.2 °F 62% 29.62 in 3.7 mi SE 11.5 mph - N/A   Partly Cloudy
6:40 PM 87.8 °F 99.7 °F 77.0 °F 70% 29.65 in 3.7 mi SE 9.2 mph - N/A   Partly Cloudy
7:10 PM 87.8 °F 99.7 °F 77.0 °F 70% 29.65 in 3.7 mi SE 13.8 mph - N/A   Partly Cloudy
7:40 PM 87.8 °F 99.7 °F 77.0 °F 70% 29.65 in 3.7 mi SE 11.5 mph - N/A   Partly Cloudy
8:10 PM 87.8 °F 99.7 °F 77.0 °F 70% 29.68 in 3.7 mi SE 13.8 mph - N/A   Partly Cloudy
8:30 PM 88 °F - 80 °F 71% 29.72 in 2 mi SSE 5.8 mph - -   Scattered Clouds
8:40 PM 87.8 °F 99.7 °F 77.0 °F 70% 29.71 in 3.7 mi SE 11.5 mph - N/A   Scattered Clouds
9:10 PM 87.8 °F 102.5 °F 78.8 °F 75% 29.71 in 3.7 mi SE 11.5 mph - N/A   Scattered Clouds
9:40 PM 87.8 °F 102.5 °F 78.8 °F 75% 29.74 in 3.7 mi ESE 9.2 mph - N/A   Scattered Clouds
10:10 PM 87.8 °F 102.5 °F 78.8 °F 75% 29.74 in 3.7 mi SE 5.8 mph - N/A   Scattered Clouds
10:40 PM 86.0 °F 99.3 °F 78.8 °F 79% 29.77 in 3.7 mi SSE 6.9 mph - N/A   Partly Cloudy
11:10 PM 86.0 °F 99.3 °F 78.8 °F 79% 29.77 in 3.7 mi South 9.2 mph - N/A   Partly Cloudy
11:30 PM 87 °F - 81 °F 76% 29.78 in 2 mi SSE 5.8 mph - -   Partly Cloudy
11:40 PM 86.0 °F 99.3 °F 78.8 °F 79% 29.74 in 3.7 mi South 8.1 mph - N/A   Scattered Clouds